Location: Burghclere
(51.3167°N, 1.3167°W)
Time: 21:15:56
(UTC+00:00)

Daily predictions for brighter satellites

Satellite Brightness Start Highest point End
(mag) Time Altitude Azimuth Time Altitude Azimuth Time Altitude Azimuth
Cosmos-2242 3.1 21:01:49 10° N 21:06:11 88° W 21:10:33 10° S
Cosmos 1400 Rocket 2.9 21:02:53 10° NNW 21:06:54 82° W 21:10:50 10° S
SPOT 1/Viking Rocket 3.6 21:01:58 10° SSE 21:07:07 77° ENE 21:12:18 10° NNW
Cosmos 2221 3.8 21:07:15 10° N 21:11:04 28° ENE 21:14:50 10° SE
Lacrosse 5 rocket 2.9 21:09:14 10° W 21:13:15 39° N 21:17:03 10° ENE
NOSS 7 (D) 4.0 21:11:36 10° SW 21:14:22 73° NW 21:17:02 10° NE
Resurs 01 Rocket 3.1 21:12:32 10° SSW 21:16:33 34° W 21:20:37 10° NNW
SAR-Lupe-2 3.9 21:14:48 10° NNE 21:18:19 48° E 21:21:47 10° S
Terra 2.4 21:15:19 10° SE 21:19:52 47° ENE 21:24:26 10° N
TSX-5 4.4 21:22:53 10° NNW 21:26:07 40° NE 21:29:55 10° ESE
CZ-4B DEB 4.4 21:23:55 10° SSE 21:27:16 87° WSW 21:30:39 10° NNW
NOSS 3-4 (A) 4.3 21:20:56 10° NW 21:27:35 58° NE 21:34:58 10° ESE
NOSS 3-4 (C) 4.3 21:21:02 10° NW 21:27:42 58° NE 21:35:05 10° ESE
Cosmos 1455 4.0 21:26:18 10° NNW 21:29:40 29° W 21:33:01 10° SSW
Alouette 2 Rocket 4.2 21:27:01 10° NNW 21:30:43 55° WSW 21:35:35 10° S
Cosmos 2322 Rocket 3.6 21:25:33 10° WSW 21:30:53 43° NW 21:36:17 10° NNE
Cosmos 1758 Rocket 4.3 21:28:45 10° SSW 21:33:11 58° WNW 21:37:38 10° N
USA 245 4.4 21:33:31 10° SSW 21:36:50 40° W 21:41:00 10° NNW
Cosmos 1328 4.4 21:32:57 10° SSW 21:36:52 59° WNW 21:40:49 10° N
SL-24 R/B - RUBIN 2 4.5 21:32:54 10° SSW 21:39:03 78° SE 21:45:45 10° NE
NOSS 3-3 (A) 4.1 21:33:39 10° SSW 21:39:19 52° ESE 21:45:45 10° NE
NOSS 3-3 (C) 4.1 21:33:46 10° SSW 21:39:26 51° ESE 21:45:52 10° NE
Cosmos 1538 Rocket 4.1 21:41:40 10° S 21:46:57 65° ESE 21:52:15 10° NNE
Cosmos 2084 4.0 21:48:06 10° NW 21:52:26 52° SW 21:56:03 14° SSE
COSMOS 2428 2.7 21:47:55 10° SSW 21:53:32 67° ESE 21:59:11 10° NE
Cosmos 2181 Rocket 4.3 21:49:06 10° NNW 21:55:26 70° W 22:01:37 10° S
ATLAS 2AS CENTAUR R/B 3.1 21:47:53 10° NW 21:55:38 71° NE 22:02:39 10° SE
Cosmos 2322 3.9 21:50:34 10° SW 21:56:18 79° WNW 22:02:04 10° NNE
Cosmos 1953 Rocket 4.1 21:52:11 10° SSW 21:56:27 59° WNW 22:00:45 10° N
ATLAS CENTAUR R/B 1.9 21:54:45 10° NW 21:58:14 39° WSW 22:00:56 15° S
Cosmos 1869 3.3 21:55:20 10° N 21:59:20 75° ENE 22:02:34 15° SSE
Cosmos 773 Rocket 4.3 21:55:14 10° SSW 22:00:31 71° WNW 22:05:50 10° NNE
Cosmos 2074 Rocket 4.1 21:54:33 10° S 22:00:40 63° E 22:06:49 10° NNE
BREEZE-M DEB (TANK) 2.0 21:54:37 10° W 22:00:40 70° S 22:03:19 10° ESE
ERS-1 Rocket 3.6 21:57:03 10° S 22:01:58 53° W 22:06:56 10° NNW
Cosmos 1842 Rocket 3.5 21:58:30 10° NNW 22:02:53 85° W 22:06:35 14° S
Cosmos 2237 Rocket 2.9 21:59:39 12° S 22:04:21 36° ESE 22:09:31 10° NE
Cosmos 2219 Rocket 2.2 21:59:29 10° SSW 22:05:05 87° ESE 22:10:45 10° NNE
SPOT 5 3.4 22:02:26 10° S 22:07:20 54° W 22:12:02 10° NNW
USA 215 3.3 22:01:37 10° ENE 22:08:04 55° SE 22:14:28 10° SW
Cosmos 2360 Rocket 3.6 22:02:43 10° WSW 22:08:05 42° NW 22:13:28 10° NNE
Cosmos 2344 4.2 22:05:03 11° S 22:11:19 33° ESE 22:18:08 10° NE
CZ-4C R/B 4.1 22:10:07 10° NW 22:16:05 36° NNE 22:23:02 10° E
GEOS 3 Rocket 3.9 22:12:42 10° NE 22:18:07 78° NW 22:23:31 10° SW
ATLAS 5 CENTAUR R/B 4.2 22:18:05 10° NW 22:18:54 11° N 22:19:44 10° NNE
Cosmos 2333 Rocket 2.5 22:13:37 10° SW 22:19:18 74° WNW 22:25:05 10° NNE
Cosmos 1315 Rocket 4.1 22:18:00 10° NNW 22:21:46 36° W 22:25:29 10° SSW
ALOS 2 4.2 22:18:57 11° ESE 22:22:17 26° ENE 22:25:55 10° N
Iridium 2 4.3 22:19:48 10° N 22:23:30 44° E 22:25:48 20° SE
EO 1 Del DPAF 4.3 22:24:56 10° NE 22:28:15 28° E 22:29:55 20° SE
Cosmos 2056 Rocket 3.8 22:22:54 10° NNW 22:28:18 63° ENE 22:32:26 17° SE
Cosmos 1892 2.6 22:26:26 19° S 22:29:04 71° E 22:32:53 10° NNE
NOSS 0 Rocket 3.9 22:23:15 10° SSW 22:29:19 66° ESE 22:35:27 10° NE
MTI 3.6 22:29:41 10° NNE 22:32:47 82° WNW 22:34:54 19° SSW
Cosmos 1606 4.0 22:31:40 10° N 22:35:07 29° ENE 22:37:25 17° ESE
Cosmos 2278 Rocket 2.6 22:31:02 10° NW 22:36:34 55° WSW 22:40:40 18° S
ATLAS 5 CENTAUR R/B 3.3 22:32:43 10° W 22:36:48 38° NNW 22:41:28 10° NE
Cosmos 2297 4.1 22:33:33 10° NNW 22:39:14 58° NE 22:43:52 15° SE
Cosmos 1943 Rocket 3.5 22:34:37 10° NNW 22:39:49 35° NE 22:44:58 10° ESE
Cosmos 1408 2.7 22:37:56 24° SSE 22:39:53 57° E 22:43:25 10° NNE
Cosmos 44 4.3 22:40:51 20° SE 22:42:01 23° ESE 22:45:29 10° ENE
USA 267 3.3 22:36:39 15° SE 22:42:13 67° SW 22:48:47 10° WNW
Cosmos 1680 Rocket 3.5 22:39:45 14° S 22:44:16 69° ESE 22:49:35 10° NNE
Cosmos 371 Rocket 4.1 22:43:03 10° NNW 22:47:45 45° ENE 22:51:21 16° SE
Cosmos 2221 3.7 22:44:41 10° NNW 22:48:42 36° W 22:52:05 13° SSW
SL-16 R/B 3.1 22:46:35 20° SSE 22:49:30 31° ESE 22:54:26 10° NE
APEX 4.2 22:49:51 10° N 22:52:13 24° NE 22:53:52 15° E
CREW DRAGON DEMO-1 DEB 3.8 22:53:16 28° SE 22:53:16 28° SE 22:55:30 10° E
Lacrosse 5 rocket 2.5 22:49:05 10° WNW 22:53:03 43° NNE 22:56:47 10° E
Cosmos 1452 Rocket 4.4 22:50:08 10° NNW 22:55:10 43° ENE 22:59:20 14° SE
Terra 3.4 22:53:51 10° SSW 22:57:49 27° W 23:01:51 10° NW
In-Cosmos 22 Rocket 4.4 22:56:02 12° SSW 23:00:59 63° WNW 23:06:18 10° N
Cosmos 923 Rocket 4.2 22:57:00 10° SSW 23:02:15 72° WNW 23:07:35 10° NNE
Cosmos 1328 Rocket 4.1 22:59:28 10° N 23:03:40 48° ENE 23:06:06 23° SE
Cosmos 1766 Rocket 4.1 23:01:32 24° SSE 23:03:45 44° E 23:07:57 10° NNE
Cosmos 2058 3.7 23:03:48 14° SSW 23:07:12 48° WNW 23:11:14 10° N
Okean 3 Rocket 3.8 23:07:35 25° SSE 23:09:57 57° E 23:14:19 10° NNE
Meteor 2-3 Rocket 4.5 23:12:54 21° SSE 23:16:08 40° E 23:21:26 10° NNE
TIMED 4.4 23:13:40 23° SSW 23:16:23 78° ESE 23:20:47 10° NNE
Cosmos 1825 2.2 23:14:44 26° SSW 23:16:47 80° W 23:20:36 10° N
Cosmos 1340 3.6 23:15:33 25° SE 23:16:54 33° E 23:20:20 10° NNE
Cosmos 1624 Rocket 4.3 23:13:21 10° NNW 23:18:29 55° WSW 23:21:30 24° S
NOSS 3-4 (A) 4.2 23:11:56 10° NW 23:18:35 49° WSW 23:23:28 21° S
NOSS 3-4 (C) 4.2 23:12:02 10° NW 23:18:43 50° WSW 23:23:36 21° S
Aureole 2 Rocket 2.1 23:17:19 10° NNW 23:20:07 57° WSW 23:20:49 41° SSW
Cosmos 2218 Rocket 4.3 23:17:44 22° SSE 23:21:49 58° E 23:27:59 10° NNE
Cosmos 2366 rocket 4.3 23:21:57 22° SSE 23:26:02 60° E 23:32:16 10° NNE
BREEZE-M DEB (TANK) 4.3 23:24:37 10° W 23:26:36 13° WSW 23:27:09 12° SW
Cosmos 2369 Rocket 2.9 23:22:57 10° NNW 23:28:25 50° NE 23:33:18 13° SE
IRIDIUM 106 4.4 23:26:31 25° SSE 23:29:34 69° E 23:34:47 10° N
Cosmos 1980 4.2 23:24:36 10° SW 23:30:11 60° NW 23:35:48 10° NNE
Cosmos 304 Rocket 4.3 23:26:54 10° NNW 23:31:40 53° ENE 23:35:00 19° SE
SL-4 R/B 1.2 23:33:31 42° ENE 23:33:31 42° ENE 23:35:24 10° N
Cosmos 1933 3.3 23:29:38 10° N 23:33:42 89° WSW 23:35:34 31° S
Cosmos 2151 3.3 23:32:17 22° SSW 23:34:53 63° WNW 23:39:09 10° N
Helios 1A 3.3 23:34:08 25° SE 23:36:22 59° ENE 23:40:28 10° N
COSMOS 2455 2.9 23:31:06 10° NW 23:37:12 83° NE 23:41:47 18° SE
Thor Agena Rocket 3.9 23:33:03 10° N 23:38:06 60° WNW 23:42:04 16° SW
Genesis I 3.6 23:35:47 10° SW 23:39:37 63° NW 23:43:30 10° NE
Cosmos 2341 Rocket 4.2 23:40:08 19° SSW 23:44:46 68° WNW 23:50:59 10° N
ATLAS 2AS CENTAUR R/B 3.6 23:39:25 10° NW 23:46:11 37° WSW 23:50:03 21° SSW
Cosmos 2237 Rocket 3.1 23:42:46 10° SW 23:48:18 49° NW 23:53:51 10° NNE
Cosmos 2219 Rocket 4.4 23:45:14 10° W 23:49:47 25° NW 23:54:22 10° NNE
Cosmos 1151 Rocket 3.3 23:46:14 10° NNW 23:50:30 58° W 23:52:34 28° SSW
Cosmos 1782 3.0 23:47:17 10° N 23:51:14 62° ENE 23:53:04 29° SSE
USA 215 3.5 23:44:43 10° ENE 23:51:16 72° NNW 23:57:47 10° WSW
Cosmos 1408 Rocket 3.5 23:52:07 30° S 23:54:18 83° E 23:58:44 10° NNE
